User: anonymous   Login
Location: Enborne
(51.3833°N, 1.3667°W)
Time: 06:05:35
(UTC+00:00)
Language:

COSMO-SKYMED 1 - Orbit

View from above orbital plane
View from above orbital plane
View from above satellite
View from above satellite

Ground track
Ground track

The orbit data is extracted from the following two-line orbital elements,

1 31598U 07023A   20339.67186234  .00000149  00000-0  25282-4 0  9999
2 31598  97.8822 160.3667 0001448  90.8415 269.3004 14.82156186730047
Epoch (UTC): 04 December 2020 16:07:28
Eccentricity: 0.0001448
inclination: 97.8822°
perigee height: 621 km
apogee height: 623 km
right ascension of ascending node: 160.3667°
argument of perigee: 90.8415°
revolutions per day: 14.82156186
mean anomaly at epoch: 269.3004°
orbit number at epoch: 73004

The dashed part of the orbit path shows where the satellite is in the earth's shadow,  

DLR